Regional Weather Roundup
Issued by NWS San Diego, CA

Home | Current Version | Previous Version | Text Only | Print | Product List | Glossary On
Versions: 1 2 3 4 5 6 7 8 9 10 11 12 13 14 15 16 17 18 19 20 21 22 23 24 25 26 27 28 29 30 31 32 33 34 35 36 37 38 39 40 41 42 43 44 45 46 47 48 49 50
000
ASUS46 KSGX 301311
RWRSGX

SAN DIEGO HOURLY WEATHER ROUNDUP
NATIONAL WEATHER SERVICE SAN DIEGO CA
600 AM PDT SAT MAY 30 2015

NOTE: "FAIR" INDICATES FEW OR NO CLOUDS BELOW 12,000 FEET WITH NO
SIGNIFICANT WEATHER AND/OR OBSTRUCTIONS TO VISIBILITY.

CAZ042-043-060-061-PZZ750-775-301400-

GREATER SAN DIEGO AREA

CITY           SKY/WX    TMP DP  RH WIND       PRES   REMARKS
LINDBERGH FLD  CLOUDY    62  56  80 N3        29.93R
POINT LOMA       N/A     58  55  89 W3          N/A
NATIONAL CITY    N/A     62  58  86 CALM      29.93R
CHULA VISTA      N/A     61  59  91 CALM      29.85R
IMPERIAL BEACH CLOUDY    61  57  87 VRB3      29.93R
BROWN FIELD    CLOUDY    59  57  93 CALM      29.92R FOG
MONTGOMERY FLD CLOUDY    59  56  89 CALM      29.92R FOG

$$

NORTH SAN DIEGO COUNTY

CITY           SKY/WX    TMP DP  RH WIND       PRES   REMARKS
CAMP PENDLETON CLOUDY    59  55  87 CALM      29.92R FOG
OCEANSIDE AP   CLOUDY    61  57  87 CALM      29.91R
OCEANSIDE HBR    N/A     61  59  92 W3        29.94R
VISTA            N/A     57  51  81 CALM      29.90R
CARLSBAD       CLOUDY    61  57  87 CALM      29.91R
DEL MAR          N/A     59  57  92 CALM      29.94R
LA JOLLA SCRIP   N/A    N/A N/A N/A SW1       29.90R
FALLBROOK        N/A     57  57 100 CALM      29.92R
ESCONDIDO        N/A     58  55  91 CALM      29.93R
SAN MARCOS       N/A     57  54  88 CALM      29.89S
POWAY            N/A     56  53  90 CALM      29.93R

$$

EAST SAN DIEGO COUNTY

CITY           SKY/WX    TMP DP  RH WIND       PRES   REMARKS
RAMONA         CLEAR     51  48  89 CALM      29.92S FOG
SANTEE LAKES     N/A     55  53  93 CALM      29.92R
LA MESA          N/A     58  56  93 CALM      29.86R
JAMUL            N/A     55  54  97 CALM      29.91R
DESCANSO N       N/A     60  47  63 E7        29.77S
MT. LAGUNA OBS   N/A     65  29  26 CALM      29.73S
CAMPO            N/A     53  45  74 NE6       29.94R

$$

ORANGE COUNTY AND THE LOS ANGELES BASIN

CITY           SKY/WX    TMP DP  RH WIND       PRES   REMARKS
JOHN WAYNE AP  CLOUDY    62  57  83 CALM      29.92R FOG
LAKE FOREST FR   N/A     56  53  88 CALM      29.82R
SANTA ANA        N/A     63  58  82 CALM      29.87S
HUNTINGTON BCH   N/A     60  58  95 CALM      29.94R
LOS ALAMITOS   CLOUDY    60  59  99 CALM      29.92R FOG
FULLERTON      CLOUDY    62  57  83 CALM      29.92R HAZE
LONG BEACH     CLOUDY    60  58  92 CALM      29.93R FOG
L.A. AP        CLOUDY    57  57 100 E3        29.93R FOG
L.A. DOWNTOWN  CLOUDY    60  57  89 CALM      29.92R FOG

$$

THE INLAND EMPIRE

CITY           SKY/WX    TMP DP  RH WIND       PRES   REMARKS
CORONA         FOG       52  52 100 CALM      29.93S VSB<1/4
CHINO          PTCLDY    58  55  90 CALM      29.94R FOG
ONTARIO        MOCLDY    59  55  87 CALM      29.92R FOG
RIVERSIDE AP   PTCLDY    60  56  86 W3        29.93R FOG
RIV CYN CREST    N/A     60  60 100 CALM        N/A
MORENO VALLEY    N/A     60  57  89 CALM      29.89R
MARCH ARB      CLEAR     56  55  97 NW3       29.93R
HORSETHIEF CYN   N/A     56  49  80 SW3       29.88R
PERRIS           N/A     61  57  87 NE1         N/A
MENIFEE          N/A     59  56  90 CALM      30.00R
HEMET EAST       N/A     62  47  56 CALM      29.90R
FRENCH VALLEY  FAIR      57  52  82 CALM      29.93S
TEMECULA         N/A     56  55  95 CALM      29.89R

$$

SAN BERNARDINO AND RIVERSIDE COUNTY MOUNTAINS

CITY           SKY/WX    TMP DP  RH WIND       PRES   REMARKS
BIG BEAR AP    CLEAR     37  27  65 CALM      30.24R
ANGELUS OAKS     N/A     56  38  51 CALM      29.80R
PINE COVE        N/A     61  40  45 CALM      29.85R

$$

SOUTHERN DESERT INCLUDING THE COACHELLA VALLEY

CITY           SKY/WX    TMP DP  RH WIND       PRES   REMARKS
PALM SPRINGS   CLEAR     80  48  32 NW8       29.87R
PALM DESERT      N/A     74  55  50 CALM        N/A
THERMAL        CLEAR     62  49  62 CALM      29.83R
BLYTHE         CLEAR     68  33  27 N6        29.85R
IMPERIAL AP    CLEAR     67  51  56 E5        29.82R
EL CENTRO NAS  PTCLDY    64  51  62 NE6       29.84R
YUMA AZ        CLEAR     71  37  28 CALM      29.85R

$$

UPPER DESERT

CITY           SKY/WX    TMP DP  RH WIND       PRES   REMARKS
VICTORVILLE AP CLEAR     63  30  29 CALM      29.98S
HESPERIA         N/A     61  34  36 W1        29.96R
PALMDALE       CLEAR     61  31  32 SW6       29.95S
LANCASTER      CLEAR     54  29  38 W3        29.95R
EDWARDS AFB    PTCLDY    59  35  39 VRB2      29.93R
DAGGETT        CLEAR     73  31  21 W10       29.92R
29 PALMS N     CLEAR     69  38  32 CALM      30.00R
NEEDLES        CLEAR     75  29  18 W7        29.88R

$$

REGIONAL REPORTS

CITY           SKY/WX    TMP DP  RH WIND       PRES   REMARKS
SANTA BARBARA  FOG       56  55  97 S5        29.92R VSB 3/4
SANDBERG       CLEAR     70  27  20 W8        30.07R
LAS VEGAS NV   PTCLDY    75  27  17 SW7       29.91R
PHOENIX AZ     PTCLDY    75  40  28 E6        29.89R
TIJUANA        CLOUDY    59  54  82 CALM      29.93R FOG
ENSENADA NW      N/A     60  32  35 CALM      29.90R

$$

OFFSHORE ISLANDS

CITY           SKY/WX    TMP DP  RH WIND       PRES   REMARKS
CATALINA ARPT  FOG       54  53  97 N3        29.94R VSB<1/4
SAN NICOLAS IS FOG      N/A N/A N/A W6        29.93R VSB 1/2

$$

MARINE AND OFFSHORE BUOY REPORTS

STATION/POSITION SKY/WX   TEMP    WIND        PRES    SWELL
                          AIR SEA DIR/SP/G            HT/PER/DIR
                          (F)     (DEG/KT/KT) (MB)    (FT/S/D)
TANNER BANKS               57 61  330/  8/ 10 1013.3R   5/200/14
S CLEMENTE BASIN           59 64  290/  2/  4 1013.2R   3/210/15
SAN NICOLAS IS.               60                N/A     3/200/15
SO. S. ROSA ISLA           55 60  310/ 14/ 17 1013.0R   3/13
W. S. BARBARA CH           53 56  320/ 16/ 19 1013.4R   3/260/15
M. S. BARBARA CH           53 59  270/  4/  6 1013.5R
S. MONICA BASIN            58 63  120/  6/  8 1013.5R   3/200/15
S PEDRO CHANNEL               63                N/A     2/210/13
DANA POINT                    66                N/A     2/200/15
OCEANSIDE OFFSHR              66                N/A     2/210/15
TORREY PINES OTR              65                N/A     3/220/14
LA JOLLA 1                 61 65  330/  2/  4 1012.5R
MISSION BAY BUOY              65                N/A     3/210/15
SAN DIEGO BAY                 66              1013.1S
POINT LOMA SOUTH              65                N/A     3/200/14

$$



USA.gov is the U.S. government's official web portal to all federal, state and local government web resources and services.